This demonstration page uses our WeatherBlox Daily Observations layout. Learn more.

Left ArrowRight Arrow

34.02893, -84.19858

Hourly Observations for May 20, 2022

Temp ( °F °C ) Dew Point ( °F °C ) Humidity (%) Winds ( mph kmh ) Pressure ( in mb ) Visibility ( mi km ) Precip ( " mm )
12:53 am 00:53 Clear 74 23.3 66 18.9 76 76 SSE 3 6 29.83 1010 10 16 0.00 0.00
1:53 am 01:53 Clear 73 22.8 66 18.9 79 79 S 3 6 29.82 1010 10 16 0.00 0.00
2:53 am 02:53 Clear 73 22.8 66 18.9 79 79 SSW 6 9 29.83 1010 10 16 0.00 0.00
3:53 am 03:53 Clear 73 22.8 66 18.9 79 79 SW 10 17 29.83 1010 10 16 0.00 0.00
4:53 am 04:53 Clear 72 22.2 66 18.9 82 82 SW 8 13 29.85 1011 10 16 0.00 0.00
5:53 am 05:53 Clear 70 21.1 66 18.9 87 87 SSW 8 13 29.86 1011 10 16 0.00 0.00
6:53 am 06:53 Sunny 70 21.1 66 18.9 87 87 S 6 9 29.89 1012 10 16 0.00 0.00
7:36 am 07:36 Mostly Cloudy 71 21.7 67 19.4 87 87 SW 12 19 29.94 1014 10 16 0.00 0.00
7:53 am 07:53 Mostly Cloudy 72 22.2 67 19.4 84 84 SW 9 15 29.92 1013 10 16 0.00 0.00
8:53 am 08:53 Partly Cloudy 73 22.8 66 18.9 79 79 WSW 10 17 29.93 1014 10 16 0.00 0.00
9:53 am 09:53 Sunny 76 24.4 65 18.3 69 69 SSW 10 17 29.94 1014 10 16 0.00 0.00
10:53 am 10:53 Sunny 80 26.7 65 18.3 60 60 SW 12 19 29.94 1014 10 16 0.00 0.00
11:53 am 11:53 Sunny 82 27.8 65 18.3 56 56 SW 8 13 29.94 1014 10 16 0.00 0.00
12:53 pm 12:53 Mostly Cloudy 83 28.3 64 17.8 53 53 SSW 10 17 29.95 1014 10 16 0.00 0.00
1:53 pm 13:53 Partly Cloudy 86 30 63 17.2 46 46 S 14 22 29.94 1014 10 16 0.00 0.00
2:53 pm 14:53 Mostly Sunny 88 31.1 62 16.7 42 42 SSW 14 22 29.92 1013 10 16 0.00 0.00
3:53 pm 15:53 Sunny 89 31.7 58 14.4 35 35 SW 15 24 29.91 1013 10 16 0.00 0.00
4:53 pm 16:53 Mostly Sunny 87 30.6 61 16.1 42 42 SSW 12 19 29.91 1013 10 16 0.00 0.00
5:53 pm 17:53 Sunny 87 30.6 61 16.1 42 42 S 12 19 29.92 1013 10 16 0.00 0.00
6:53 pm 18:53 Mostly Cloudy 85 29.4 62 16.7 46 46 S 6 9 29.92 1013 10 16 0.00 0.00
7:53 pm 19:53 Sunny 83 28.3 61 16.1 48 48 S 6 9 29.92 1013 10 16 0.00 0.00
8:53 pm 20:53 Clear 80 26.7 62 16.7 54 54 S 5 7 29.94 1014 10 16 0.00 0.00
9:53 pm 21:53 Clear 78 25.6 62 16.7 58 58 S 7 11 29.96 1015 10 16 0.00 0.00
10:53 pm 22:53 Clear 76 24.4 63 17.2 64 64 SSE 3 6 29.99 1016 10 16 0.00 0.00
11:53 pm 23:53 Clear 75 23.9 64 17.8 69 69 S 3 6 30.01 1016 10 16 0.00 0.00

Powered by AerisWeather